Location: Birkenwerder
(52.6919°N, 13.2774°E)
Time: 00:15:44
(UTC+00:00)

Cosmos 1570 Rocket - Pass Details

Date: 03 October 2020
Orbit: 763 x 788 km, 74.1° (Epoch: 24 October)

Event Time Altitude Azimuth Distance (km) Brightness Sun altitude
Exits shadow 04:30:59 - 287° (WNW) 2,617 6.2 -7.1°
Reaches altitude 10° 04:32:14 10° 298° (WNW) 2,359 6.0 -6.9°
Maximum altitude 04:34:55 14° 328° (NNW) 2,106 6.0 -6.5°
Drops below altitude 10° 04:37:37 10° 358° (N) 2,365 6.6 -6.1°
Sets 04:41:21 0° 24° (NNE) 3,296 7.6 -5.5°
